COSMOS 2228

Last updated on Sun Aug 09 2026 00:02:09 GMT+0000 (Coordinated Universal Time)

1 22286U 92094A 26220.60213995 .00000912 00000+0 75240-4 0 9994 2 22286 82.5162 91.8306 0018493 145.7665 214.4755 14.97739295798796
UTC large
Height (km)
Speed (km/s)
/
Latitude / Longitude
Inclination (degrees)
Orbital Period (minutes)
Azimuth
Elevation
Range (km)
Doppler Factor

Next 0 passes for location: London (51.5072 / 0.1276)

No passes found over London.
COSMOS 2228